Flag for Canada Weather past 2 weeks in Barrie, Ontario, Canada

Now
37 °F

Overcast.


Feels Like: 34 °F
Forecast: 34 / 43 °F
Wind: 5 mph from Southeast

Location: Borden

Current Time: Dec 27, 2014 at 5:11:09 AM

Latest Report: Dec 27, 2014 at 4:00 AM


Visibility: 8 mi

Pressure: 30.12 "Hg

Humidity: 93%

Dew point: 36 °F

Location of BarrieLocation

Historic Weather in Barrie — Graph

°F

Barrie temperature yesterday

Maximum temperature yesterday: 41 °F (at 2:00 PM)
Minimum temperature yesterday: 34 °F (at 8:00 AM)
Average temperature yesterday: 38 °F

Past Weeks' High & Low Weather Summary

 TemperatureHumidityPressure
High46 °F (Dec 24, 11:00 PM)100% (Dec 12, 8:00 PM)30.34 "Hg (Dec 12, 8:00 PM)
Low12 °F (Dec 20, 8:00 AM)69% (Dec 21, 11:00 AM)29.07 "Hg (Dec 25, 12:01 AM)
Average32 °F92%29.98 "Hg
* Reported Dec 12 4:03 AM — Dec 27 4:00 AM, Barrie, Weather by CustomWeather, © 2014

Note: Actual official high and low records may vary slightly from our data, if they occured in-between our weather recording intervals... More about our weather records

Advertising

Barrie weather history for previous 24 hours

 ConditionsComfort  
Time TempWeatherWind HumidityBarometerVisibility
4:00 AM
Dec 27
37 °FOvercast.5 mph93%30.12 "Hg8 mi
3:00 AM36 °FOvercast.3 mph93%30.13 "Hg8 mi
2:00 AM37 °FOvercast.5 mph93%30.11 "Hg9 mi
1:00 AM37 °FOvercast.No wind93%30.11 "Hg9 mi
12:00 AM36 °FOvercast.2 mph93%30.12 "Hg9 mi
11:00 PM
Dec 26
39 °FOvercast.No wind87%30.12 "Hg9 mi
10:00 PM39 °FOvercast.2 mph87%30.12 "Hg9 mi
9:00 PM37 °FOvercast.No wind93%30.13 "Hg9 mi
8:00 PM37 °FOvercast.No wind93%30.12 "Hg9 mi
7:00 PM37 °FOvercast.No wind93%30.11 "Hg9 mi
6:00 PM37 °FOvercast.No wind93%30.10 "Hg9 mi
5:00 PM39 °FOvercast.2 mph87%30.09 "Hg9 mi
4:00 PM41 °FOvercast.3 mph81%30.08 "Hg9 mi
3:00 PM41 °FOvercast.12 mph81%30.06 "Hg9 mi
2:00 PM41 °FOvercast.10 mph81%30.07 "Hg9 mi
1:00 PM39 °FOvercast.13 mph81%30.09 "Hg9 mi
12:04 PM37 °FPartly sunny.12 mph87%30.10 "Hg9 mi
11:00 AM37 °FOvercast.10 mph81%30.16 "Hg9 mi
10:00 AM37 °FOvercast.12 mph81%30.17 "Hg9 mi
9:00 AM37 °FOvercast.7 mph81%30.16 "Hg9 mi
8:00 AM34 °FOvercast.3 mph93%30.13 "Hg9 mi
7:00 AM36 °FOvercast.5 mph87%30.15 "Hg9 mi
6:00 AM37 °FOvercast.6 mph81%30.14 "Hg9 mi
5:00 AM37 °FOvercast.6 mph81%30.14 "Hg9 mi
Weather by CustomWeather, © 2014

See weather overviewHow to use our weather pages